Tracking 19475 objects as of 18-Jan-2019
HD Live streaming from Space Station
objects crossing your sky now

TANSUO 2

Track TANSUO 2 now!
10-day predictions
TANSUO 2 is classified as:


NORAD ID: 28479
Int'l Code: 2004-046A
Perigee: 689.4 km
Apogee: 705.6 km
Inclination: 98.2 °
Period: 98.6 minutes
Semi major axis: 7068 km
RCS: 1.44 m2 (large)
Launch date: November 18, 2004
Source: People's Republic of China (PRC)
Launch site: Xichang Space Center, China (XSC)
aabbcc
Your satellite tracking list
Your tracking list is empty




NASA's NSSDC Master Catalog

Two Line Element Set (TLE):
1 28479U 04046A   19018.55404777  .00000085  00000-0  26865-4 0  9996
2 28479  98.1816  40.0709 0011489 113.7961 246.4446 14.60880511754253
Source of the keplerian elements: AFSPC